Year,Month,Day,Hour,Minute,Value (Times are PST for windspeed in km/hr)
2016,02,28,00,00,4.60
2016,02,28,00,01,2.90
2016,02,28,00,02,2.50
2016,02,28,00,03,0.90
2016,02,28,00,04,4.50
2016,02,28,00,05,7.60
2016,02,28,00,06,1.60
2016,02,28,00,07,4.70
2016,02,28,00,08,6.00
2016,02,28,00,09,9.70
2016,02,28,00,10,3.70
2016,02,28,00,11,6.90
2016,02,28,00,12,5.60
2016,02,28,00,13,9.30
2016,02,28,00,14,6.90
2016,02,28,00,15,4.50
2016,02,28,00,16,2.40
2016,02,28,00,17,3.80
2016,02,28,00,18,4.90
2016,02,28,00,19,7.70
2016,02,28,00,20,3.90
2016,02,28,00,21,6.90
2016,02,28,00,22,6.00
2016,02,28,00,23,7.60
2016,02,28,00,24,7.40
2016,02,28,00,25,1.40
2016,02,28,00,26,6.70
2016,02,28,00,27,0.90
2016,02,28,00,28,1.20
2016,02,28,00,29,3.40
2016,02,28,00,30,4.20
2016,02,28,00,31,0.00
2016,02,28,00,32,3.60
2016,02,28,00,33,1.90
2016,02,28,00,34,0.00
2016,02,28,00,35,0.00
2016,02,28,00,36,0.70
2016,02,28,00,37,5.40
2016,02,28,00,38,6.00
2016,02,28,00,39,6.20
2016,02,28,00,40,5.00
2016,02,28,00,41,1.10
2016,02,28,00,42,15.20
2016,02,28,00,43,3.70
2016,02,28,00,44,3.30
2016,02,28,00,45,2.60
2016,02,28,00,46,4.90
2016,02,28,00,47,3.50
2016,02,28,00,48,2.50
2016,02,28,00,49,10.00
2016,02,28,00,50,11.80
2016,02,28,00,51,5.10
2016,02,28,00,52,6.00
2016,02,28,00,53,3.90
2016,02,28,00,54,2.90
2016,02,28,00,55,4.50
2016,02,28,00,56,2.40
2016,02,28,00,57,5.00
2016,02,28,00,58,6.40
2016,02,28,00,59,3.50
2016,02,28,01,00,1.00
2016,02,28,01,01,0.40
2016,02,28,01,02,2.80
2016,02,28,01,03,11.20
2016,02,28,01,04,5.10
2016,02,28,01,05,4.50
2016,02,28,01,06,5.60
2016,02,28,01,07,2.30
2016,02,28,01,08,12.20
2016,02,28,01,09,5.30
2016,02,28,01,10,0.10
2016,02,28,01,11,4.10
2016,02,28,01,12,8.90
2016,02,28,01,13,6.70
2016,02,28,01,14,4.20
2016,02,28,01,15,4.80
2016,02,28,01,16,5.80
2016,02,28,01,17,4.20
2016,02,28,01,18,8.90
2016,02,28,01,19,9.10
2016,02,28,01,20,11.30
2016,02,28,01,21,8.80
2016,02,28,01,22,6.40
2016,02,28,01,23,8.10
2016,02,28,01,24,4.00
2016,02,28,01,25,3.10
2016,02,28,01,26,8.00
2016,02,28,01,27,14.60
2016,02,28,01,28,11.60
2016,02,28,01,29,5.10
2016,02,28,01,30,6.20
2016,02,28,01,31,4.70
2016,02,28,01,32,6.20
2016,02,28,01,33,13.90
2016,02,28,01,34,8.00
2016,02,28,01,35,5.60
2016,02,28,01,36,6.10
2016,02,28,01,37,9.60
2016,02,28,01,38,0.50
2016,02,28,01,39,9.10
2016,02,28,01,40,8.40
2016,02,28,01,41,5.50
2016,02,28,01,42,12.60
2016,02,28,01,43,9.00
2016,02,28,01,44,8.10
2016,02,28,01,45,6.40
2016,02,28,01,46,11.50
2016,02,28,01,47,11.40
2016,02,28,01,48,3.00
2016,02,28,01,49,2.70
2016,02,28,01,50,10.00
2016,02,28,01,51,10.00
2016,02,28,01,52,0.80
2016,02,28,01,53,7.40
2016,02,28,01,54,4.90
2016,02,28,01,55,8.40
2016,02,28,01,56,7.80
2016,02,28,01,57,11.40
2016,02,28,01,58,11.90
2016,02,28,01,59,8.70
2016,02,28,02,00,9.20
2016,02,28,02,01,12.80
2016,02,28,02,02,6.70
2016,02,28,02,03,8.40
2016,02,28,02,04,10.30
2016,02,28,02,05,5.80
2016,02,28,02,06,7.30
2016,02,28,02,07,6.10
2016,02,28,02,08,11.60
2016,02,28,02,09,10.30
2016,02,28,02,10,9.30
2016,02,28,02,11,12.50
2016,02,28,02,12,9.50
2016,02,28,02,13,10.50
2016,02,28,02,14,15.90
2016,02,28,02,15,12.00
2016,02,28,02,16,9.10
2016,02,28,02,17,8.90
2016,02,28,02,18,9.00
2016,02,28,02,19,8.90
2016,02,28,02,20,6.20
2016,02,28,02,21,8.10
2016,02,28,02,22,7.40
2016,02,28,02,23,5.90
2016,02,28,02,24,8.00
2016,02,28,02,25,8.20
2016,02,28,02,26,5.30
2016,02,28,02,27,12.50
2016,02,28,02,28,6.80
2016,02,28,02,29,10.50
2016,02,28,02,30,9.20
2016,02,28,02,31,6.10
2016,02,28,02,32,9.30
2016,02,28,02,33,13.20
2016,02,28,02,34,10.90
2016,02,28,02,35,7.10
2016,02,28,02,36,8.50
2016,02,28,02,37,11.30
2016,02,28,02,38,13.20
2016,02,28,02,39,11.70
2016,02,28,02,40,14.20
2016,02,28,02,41,10.40
2016,02,28,02,42,11.80
2016,02,28,02,43,7.60
2016,02,28,02,44,10.70
2016,02,28,02,45,13.90
2016,02,28,02,46,8.50
2016,02,28,02,47,9.60
2016,02,28,02,48,8.50
2016,02,28,02,49,6.60
2016,02,28,02,50,6.40
2016,02,28,02,51,5.50
2016,02,28,02,52,1.70
2016,02,28,02,53,3.70
2016,02,28,02,54,8.50
2016,02,28,02,55,3.00
2016,02,28,02,56,2.10
2016,02,28,02,57,5.50
2016,02,28,02,58,0.00
2016,02,28,02,59,1.00
2016,02,28,03,00,7.90
2016,02,28,03,01,9.30
2016,02,28,03,02,3.20
2016,02,28,03,03,7.00
2016,02,28,03,04,10.30
2016,02,28,03,05,10.30
2016,02,28,03,06,6.90
2016,02,28,03,07,4.40
2016,02,28,03,08,3.20
2016,02,28,03,09,8.00
2016,02,28,03,10,7.60
2016,02,28,03,11,6.30
2016,02,28,03,12,7.40
2016,02,28,03,13,8.60
2016,02,28,03,14,5.60
2016,02,28,03,15,5.20
2016,02,28,03,16,3.00
2016,02,28,03,17,4.90
2016,02,28,03,18,0.30
2016,02,28,03,19,3.40
2016,02,28,03,20,0.00
2016,02,28,03,21,4.30
2016,02,28,03,22,1.80
2016,02,28,03,23,0.00
2016,02,28,03,24,4.30
2016,02,28,03,25,3.90
2016,02,28,03,26,2.50
2016,02,28,03,27,5.80
2016,02,28,03,28,7.90
2016,02,28,03,29,5.60
2016,02,28,03,30,3.60
2016,02,28,03,31,1.40
2016,02,28,03,32,1.60
2016,02,28,03,33,0.30
2016,02,28,03,34,0.00
2016,02,28,03,35,5.30
2016,02,28,03,36,3.30
2016,02,28,03,37,3.40
2016,02,28,03,38,2.70
2016,02,28,03,39,1.80
2016,02,28,03,40,4.70
2016,02,28,03,41,1.80
2016,02,28,03,42,1.50
2016,02,28,03,43,1.60
2016,02,28,03,44,0.00
2016,02,28,03,45,2.30
2016,02,28,03,46,3.10
2016,02,28,03,47,5.40
2016,02,28,03,48,3.20
2016,02,28,03,49,1.30
2016,02,28,03,50,1.70
2016,02,28,03,51,0.00
2016,02,28,03,52,0.00
2016,02,28,03,53,0.10
2016,02,28,03,54,0.00
2016,02,28,03,55,5.20
2016,02,28,03,56,1.20
2016,02,28,03,57,0.10
2016,02,28,03,58,0.00
2016,02,28,03,59,0.80
2016,02,28,04,00,0.00
2016,02,28,04,01,0.00
2016,02,28,04,02,0.00
2016,02,28,04,03,0.00
2016,02,28,04,04,0.00
2016,02,28,04,05,0.00
2016,02,28,04,06,0.00
2016,02,28,04,07,0.00
2016,02,28,04,08,0.40
2016,02,28,04,09,0.00
2016,02,28,04,10,0.00
2016,02,28,04,11,1.10
2016,02,28,04,12,0.60
2016,02,28,04,13,0.90
2016,02,28,04,14,1.00
2016,02,28,04,15,7.30
2016,02,28,04,16,5.80
2016,02,28,04,17,1.20
2016,02,28,04,18,2.00
2016,02,28,04,19,1.30
2016,02,28,04,20,6.40
2016,02,28,04,21,2.10
2016,02,28,04,22,2.20
2016,02,28,04,23,4.20
2016,02,28,04,24,1.40
2016,02,28,04,25,3.00
2016,02,28,04,26,0.60
2016,02,28,04,27,0.00
2016,02,28,04,28,6.50
2016,02,28,04,29,4.40
2016,02,28,04,30,3.50
2016,02,28,04,31,0.40
2016,02,28,04,32,2.00
2016,02,28,04,33,3.50
2016,02,28,04,34,3.40
2016,02,28,04,35,2.30
2016,02,28,04,36,0.00
2016,02,28,04,37,0.00
2016,02,28,04,38,1.80
2016,02,28,04,39,2.20
2016,02,28,04,40,6.50
2016,02,28,04,41,0.30
2016,02,28,04,42,2.50
2016,02,28,04,43,4.10
2016,02,28,04,44,0.10
2016,02,28,04,45,0.90
2016,02,28,04,46,3.30
2016,02,28,04,47,6.10
2016,02,28,04,48,4.20
2016,02,28,04,49,6.30
2016,02,28,04,50,1.90
2016,02,28,04,51,8.20
2016,02,28,04,52,5.10
2016,02,28,04,53,0.90
2016,02,28,04,54,1.20
2016,02,28,04,55,4.10
2016,02,28,04,56,1.50
2016,02,28,04,57,0.00
2016,02,28,04,58,0.00
2016,02,28,04,59,0.00
2016,02,28,05,00,1.80
2016,02,28,05,01,6.80
2016,02,28,05,02,3.80
2016,02,28,05,03,5.30
2016,02,28,05,04,0.20
2016,02,28,05,05,0.00
2016,02,28,05,06,3.50
2016,02,28,05,07,1.20
2016,02,28,05,08,0.00
2016,02,28,05,09,3.40
2016,02,28,05,10,3.20
2016,02,28,05,11,0.00
2016,02,28,05,12,0.00
2016,02,28,05,13,1.50
2016,02,28,05,14,0.00
2016,02,28,05,15,0.00
2016,02,28,05,16,0.00
2016,02,28,05,17,0.00
2016,02,28,05,18,0.10
2016,02,28,05,19,0.00
2016,02,28,05,20,2.90
2016,02,28,05,21,1.20
2016,02,28,05,22,0.00
2016,02,28,05,23,0.00
2016,02,28,05,24,1.50
2016,02,28,05,25,2.50
2016,02,28,05,26,1.00
2016,02,28,05,27,2.70
2016,02,28,05,28,3.90
2016,02,28,05,29,0.20
2016,02,28,05,30,4.90
2016,02,28,05,31,8.10
2016,02,28,05,32,3.50
2016,02,28,05,33,2.50
2016,02,28,05,34,6.70
2016,02,28,05,35,0.20
2016,02,28,05,36,2.90
2016,02,28,05,37,3.50
2016,02,28,05,38,0.00
2016,02,28,05,39,0.00
2016,02,28,05,40,0.00
2016,02,28,05,41,4.50
2016,02,28,05,42,3.90
2016,02,28,05,43,1.30
2016,02,28,05,44,2.60
2016,02,28,05,45,0.10
2016,02,28,05,46,0.50
2016,02,28,05,47,5.20
2016,02,28,05,48,4.70
2016,02,28,05,49,3.70
2016,02,28,05,50,4.30
2016,02,28,05,51,0.60
2016,02,28,05,52,0.10
2016,02,28,05,53,5.80
2016,02,28,05,54,1.20
2016,02,28,05,55,3.00
2016,02,28,05,56,4.80
2016,02,28,05,57,5.70
2016,02,28,05,58,3.00
2016,02,28,05,59,4.80
2016,02,28,06,00,1.80
2016,02,28,06,01,2.50
2016,02,28,06,02,5.70
2016,02,28,06,03,0.00
2016,02,28,06,04,0.00
2016,02,28,06,05,4.30
2016,02,28,06,06,4.20
2016,02,28,06,07,0.00
2016,02,28,06,08,4.80
2016,02,28,06,09,3.40
2016,02,28,06,10,2.40
2016,02,28,06,11,4.10
2016,02,28,06,12,4.60
2016,02,28,06,13,3.40
2016,02,28,06,14,3.40
2016,02,28,06,15,1.60
2016,02,28,06,16,9.70
2016,02,28,06,17,4.50
2016,02,28,06,18,2.90
2016,02,28,06,19,0.00
2016,02,28,06,20,5.60
2016,02,28,06,21,6.90
2016,02,28,06,22,6.90
2016,02,28,06,23,6.80
2016,02,28,06,24,6.50
2016,02,28,06,25,8.60
2016,02,28,06,26,7.50
2016,02,28,06,27,0.30
2016,02,28,06,28,4.70
2016,02,28,06,29,2.70
2016,02,28,06,30,4.30
2016,02,28,06,31,1.40
2016,02,28,06,32,0.20
2016,02,28,06,33,8.20
2016,02,28,06,34,4.10
2016,02,28,06,35,7.00
2016,02,28,06,36,7.70
2016,02,28,06,37,7.40
2016,02,28,06,38,6.80
2016,02,28,06,39,9.30
2016,02,28,06,40,9.90
2016,02,28,06,41,0.70
2016,02,28,06,42,6.60
2016,02,28,06,43,0.30
2016,02,28,06,44,9.20
2016,02,28,06,45,12.80
2016,02,28,06,46,2.70
2016,02,28,06,47,7.70
2016,02,28,06,48,5.00
2016,02,28,06,49,11.40
2016,02,28,06,50,7.80
2016,02,28,06,51,6.50
2016,02,28,06,52,10.10
2016,02,28,06,53,6.40
2016,02,28,06,54,5.10
2016,02,28,06,55,2.60
2016,02,28,06,56,3.70
2016,02,28,06,57,5.50
2016,02,28,06,58,8.90
2016,02,28,06,59,9.50
2016,02,28,07,00,7.50
2016,02,28,07,01,7.30
2016,02,28,07,02,8.60
2016,02,28,07,03,10.50
2016,02,28,07,04,6.20
2016,02,28,07,05,8.60
2016,02,28,07,06,8.70
2016,02,28,07,07,7.00
2016,02,28,07,08,7.00
2016,02,28,07,09,7.40
2016,02,28,07,10,9.30
2016,02,28,07,11,7.60
2016,02,28,07,12,14.50
2016,02,28,07,13,11.50
2016,02,28,07,14,8.10
2016,02,28,07,15,6.80
2016,02,28,07,16,9.00
2016,02,28,07,17,10.10
2016,02,28,07,18,10.90
2016,02,28,07,19,4.90
2016,02,28,07,20,8.60
2016,02,28,07,21,11.50
2016,02,28,07,22,8.20
2016,02,28,07,23,6.30
2016,02,28,07,24,5.00
2016,02,28,07,25,7.60
2016,02,28,07,26,14.20
2016,02,28,07,27,10.00
2016,02,28,07,28,8.10
2016,02,28,07,29,13.00
2016,02,28,07,30,6.80
2016,02,28,07,31,3.20
2016,02,28,07,32,7.20
2016,02,28,07,33,6.80
2016,02,28,07,34,11.30
2016,02,28,07,35,10.90
2016,02,28,07,36,7.60
2016,02,28,07,37,4.70
2016,02,28,07,38,7.10
2016,02,28,07,39,14.40
2016,02,28,07,40,8.20
2016,02,28,07,41,6.90
2016,02,28,07,42,9.30
2016,02,28,07,43,8.90
2016,02,28,07,44,8.60
2016,02,28,07,45,5.70
2016,02,28,07,46,5.00
2016,02,28,07,47,6.10
2016,02,28,07,48,15.00
2016,02,28,07,49,10.90
2016,02,28,07,50,10.20
2016,02,28,07,51,7.90
2016,02,28,07,52,5.10
2016,02,28,07,53,4.90
2016,02,28,07,54,8.80
2016,02,28,07,55,8.90
2016,02,28,07,56,10.40
2016,02,28,07,57,8.50
2016,02,28,07,58,11.50
2016,02,28,07,59,10.90
2016,02,28,08,00,4.20
2016,02,28,08,01,4.30
2016,02,28,08,02,6.10
2016,02,28,08,03,7.20
2016,02,28,08,04,9.50
2016,02,28,08,05,5.90
2016,02,28,08,06,8.40
2016,02,28,08,07,11.40
2016,02,28,08,08,10.10
2016,02,28,08,09,6.80
2016,02,28,08,10,6.40
2016,02,28,08,11,12.40
2016,02,28,08,12,7.60
2016,02,28,08,13,11.90
2016,02,28,08,14,7.10
2016,02,28,08,15,2.00
2016,02,28,08,16,8.00
2016,02,28,08,17,4.00
2016,02,28,08,18,9.10
2016,02,28,08,19,14.00
2016,02,28,08,20,15.20
2016,02,28,08,21,9.30
2016,02,28,08,22,10.50
2016,02,28,08,23,8.60
2016,02,28,08,24,7.20
2016,02,28,08,25,10.30
2016,02,28,08,26,8.20
2016,02,28,08,27,6.30
2016,02,28,08,28,6.20
2016,02,28,08,29,11.00
2016,02,28,08,30,13.70
2016,02,28,08,31,8.40
2016,02,28,08,32,13.40
2016,02,28,08,33,11.20
2016,02,28,08,34,13.00
2016,02,28,08,35,11.10
2016,02,28,08,36,14.30
2016,02,28,08,37,10.90
2016,02,28,08,38,8.50
2016,02,28,08,39,6.40
2016,02,28,08,40,8.20
2016,02,28,08,41,4.70
2016,02,28,08,42,12.50
2016,02,28,08,43,6.30
2016,02,28,08,44,8.20
2016,02,28,08,45,6.20
2016,02,28,08,46,3.80
2016,02,28,08,47,9.10
2016,02,28,08,48,8.20
2016,02,28,08,49,9.00
2016,02,28,08,50,14.00
2016,02,28,08,51,13.90
2016,02,28,08,52,11.70
2016,02,28,08,53,7.80
2016,02,28,08,54,12.00
2016,02,28,08,55,11.60
2016,02,28,08,56,15.70
2016,02,28,08,57,14.70
2016,02,28,08,58,9.60
2016,02,28,08,59,14.10
2016,02,28,09,00,14.70
2016,02,28,09,01,16.70
2016,02,28,09,02,13.00
2016,02,28,09,03,13.20
2016,02,28,09,04,9.30
2016,02,28,09,05,10.30
2016,02,28,09,06,10.10
2016,02,28,09,07,10.10
2016,02,28,09,08,14.70
2016,02,28,09,09,7.70
2016,02,28,09,10,11.00
2016,02,28,09,11,14.70
2016,02,28,09,12,17.20
2016,02,28,09,13,12.20
2016,02,28,09,14,10.30
2016,02,28,09,15,10.60
2016,02,28,09,16,3.50
2016,02,28,09,17,14.00
2016,02,28,09,18,10.10
2016,02,28,09,19,10.60
2016,02,28,09,20,11.70
2016,02,28,09,21,14.70
2016,02,28,09,22,16.30
2016,02,28,09,23,14.20
2016,02,28,09,24,12.70
2016,02,28,09,25,16.90
2016,02,28,09,26,14.60
2016,02,28,09,27,11.50
2016,02,28,09,28,20.60
2016,02,28,09,29,12.80
2016,02,28,09,30,10.00
2016,02,28,09,31,7.10
2016,02,28,09,32,9.80
2016,02,28,09,33,10.10
2016,02,28,09,34,12.30
2016,02,28,09,35,11.70
2016,02,28,09,36,10.00
2016,02,28,09,37,11.30
2016,02,28,09,38,11.70
2016,02,28,09,39,6.30
2016,02,28,09,40,9.20
2016,02,28,09,41,11.40
2016,02,28,09,42,10.00
2016,02,28,09,43,15.50
2016,02,28,09,44,15.70
2016,02,28,09,45,15.60
2016,02,28,09,46,12.40
2016,02,28,09,47,9.80
2016,02,28,09,48,13.00
2016,02,28,09,49,14.10
2016,02,28,09,50,14.50
2016,02,28,09,51,15.00
2016,02,28,09,52,15.90
2016,02,28,09,53,18.00
2016,02,28,09,54,10.90
2016,02,28,09,55,7.40
2016,02,28,09,56,6.50
2016,02,28,09,57,12.60
2016,02,28,09,58,9.90
2016,02,28,09,59,7.70
2016,02,28,10,00,8.70
2016,02,28,10,01,15.90
2016,02,28,10,02,13.00
2016,02,28,10,03,11.40
2016,02,28,10,04,12.00
2016,02,28,10,05,12.30
2016,02,28,10,06,10.80
2016,02,28,10,07,10.60
2016,02,28,10,08,7.00
2016,02,28,10,09,12.00
2016,02,28,10,10,10.40
2016,02,28,10,11,12.50
2016,02,28,10,12,8.70
2016,02,28,10,13,5.20
2016,02,28,10,14,4.70
2016,02,28,10,15,6.30
2016,02,28,10,16,13.40
2016,02,28,10,17,7.50
2016,02,28,10,18,11.60
2016,02,28,10,19,11.20
2016,02,28,10,20,14.40
2016,02,28,10,21,11.20
2016,02,28,10,22,9.70
2016,02,28,10,23,7.00
2016,02,28,10,24,5.50
2016,02,28,10,25,7.40
2016,02,28,10,26,8.00
2016,02,28,10,27,7.10
2016,02,28,10,28,8.70
2016,02,28,10,29,13.70
2016,02,28,10,30,10.70
2016,02,28,10,31,11.00
2016,02,28,10,32,7.40
2016,02,28,10,33,6.80
2016,02,28,10,34,8.80
2016,02,28,10,35,5.30
2016,02,28,10,36,10.90
2016,02,28,10,37,7.50
2016,02,28,10,38,5.40
2016,02,28,10,39,12.60
2016,02,28,10,40,12.30
2016,02,28,10,41,3.00
2016,02,28,10,42,8.80
2016,02,28,10,43,9.50
2016,02,28,10,44,9.10
2016,02,28,10,45,12.90
2016,02,28,10,46,11.20
2016,02,28,10,47,7.50
2016,02,28,10,48,5.30
2016,02,28,10,49,7.80
2016,02,28,10,50,13.10
2016,02,28,10,51,10.70
2016,02,28,10,52,10.50
2016,02,28,10,53,11.80
2016,02,28,10,54,10.90
2016,02,28,10,55,6.10
2016,02,28,10,56,11.40
2016,02,28,10,57,7.10
2016,02,28,10,58,4.20
2016,02,28,10,59,13.30
2016,02,28,11,00,9.90
2016,02,28,11,01,9.90
2016,02,28,11,02,9.70
2016,02,28,11,03,7.00
2016,02,28,11,04,9.00
2016,02,28,11,05,10.80
2016,02,28,11,06,15.50
2016,02,28,11,07,8.30
2016,02,28,11,08,8.30
2016,02,28,11,09,9.70
2016,02,28,11,10,6.90
2016,02,28,11,11,10.60
2016,02,28,11,12,9.90
2016,02,28,11,13,10.50
2016,02,28,11,14,6.00
2016,02,28,11,15,7.60
2016,02,28,11,16,10.10
2016,02,28,11,17,8.00
2016,02,28,11,18,6.40
2016,02,28,11,19,14.20
2016,02,28,11,20,7.20
2016,02,28,11,21,2.50
2016,02,28,11,22,11.30
2016,02,28,11,23,8.40
2016,02,28,11,24,6.80
2016,02,28,11,25,6.70
2016,02,28,11,26,3.50
2016,02,28,11,27,1.50
2016,02,28,11,28,5.50
2016,02,28,11,29,5.40
2016,02,28,11,30,4.20
2016,02,28,11,31,7.20
2016,02,28,11,32,10.40
2016,02,28,11,33,4.20
2016,02,28,11,34,6.30
2016,02,28,11,35,11.50
2016,02,28,11,36,12.70
2016,02,28,11,37,2.70
2016,02,28,11,38,0.00
2016,02,28,11,39,11.40
2016,02,28,11,40,10.30
2016,02,28,11,41,13.00
2016,02,28,11,42,14.20
2016,02,28,11,43,16.30
2016,02,28,11,44,13.80
2016,02,28,11,45,7.70
2016,02,28,11,46,20.00
2016,02,28,11,47,9.60
2016,02,28,11,48,14.50
2016,02,28,11,49,16.00
2016,02,28,11,50,22.00
2016,02,28,11,51,27.10
2016,02,28,11,52,25.90
2016,02,28,11,53,37.20
2016,02,28,11,54,25.30
2016,02,28,11,55,26.80
2016,02,28,11,56,29.20
2016,02,28,11,57,24.40
2016,02,28,11,58,27.80
2016,02,28,11,59,19.00
2016,02,28,12,00,32.10
2016,02,28,12,01,25.70
2016,02,28,12,02,26.90
2016,02,28,12,03,25.70
2016,02,28,12,04,18.90
2016,02,28,12,05,22.00
2016,02,28,12,06,16.60
2016,02,28,12,07,23.70
2016,02,28,12,08,18.80
2016,02,28,12,09,28.70
2016,02,28,12,10,25.60
2016,02,28,12,11,20.90
2016,02,28,12,12,22.00
2016,02,28,12,13,12.40
2016,02,28,12,14,18.60
2016,02,28,12,15,6.90
2016,02,28,12,16,0.30
2016,02,28,12,17,7.30
2016,02,28,12,18,7.80
2016,02,28,12,19,11.20
2016,02,28,12,20,16.60
2016,02,28,12,21,22.20
2016,02,28,12,22,18.90
2016,02,28,12,23,9.20
2016,02,28,12,24,7.60
2016,02,28,12,25,12.10
2016,02,28,12,26,18.50
2016,02,28,12,27,9.20
2016,02,28,12,28,7.80
2016,02,28,12,29,6.60
2016,02,28,12,30,3.40
2016,02,28,12,31,0.10
2016,02,28,12,32,5.40
2016,02,28,12,33,3.80
2016,02,28,12,34,5.20
2016,02,28,12,35,0.00
2016,02,28,12,36,3.30
2016,02,28,12,37,6.60
2016,02,28,12,38,9.20
2016,02,28,12,39,5.80
2016,02,28,12,40,2.20
2016,02,28,12,41,1.90
2016,02,28,12,42,2.50
2016,02,28,12,43,2.70
2016,02,28,12,44,2.40
2016,02,28,12,45,0.80
2016,02,28,12,46,3.50
2016,02,28,12,47,6.40
2016,02,28,12,48,6.40
2016,02,28,12,49,3.90
2016,02,28,12,50,0.00
2016,02,28,12,51,1.10
2016,02,28,12,52,0.10
2016,02,28,12,53,0.10
2016,02,28,12,54,0.10
2016,02,28,12,55,0.00
2016,02,28,12,56,3.00
2016,02,28,12,57,6.40
2016,02,28,12,58,6.10
2016,02,28,12,59,3.30
2016,02,28,13,00,1.90
2016,02,28,13,01,4.10
2016,02,28,13,02,7.80
2016,02,28,13,03,9.10
2016,02,28,13,04,5.20
2016,02,28,13,05,0.00
2016,02,28,13,06,1.80
2016,02,28,13,07,3.60
2016,02,28,13,08,1.20
2016,02,28,13,09,5.10
2016,02,28,13,10,1.80
2016,02,28,13,11,0.00
2016,02,28,13,12,0.00
2016,02,28,13,13,0.00
2016,02,28,13,14,0.00
2016,02,28,13,15,0.30
2016,02,28,13,16,1.00
2016,02,28,13,17,0.70
2016,02,28,13,18,0.00
2016,02,28,13,19,3.80
2016,02,28,13,20,0.20
2016,02,28,13,21,0.00
2016,02,28,13,22,4.80
2016,02,28,13,23,6.40
2016,02,28,13,24,2.00
2016,02,28,13,25,0.70
2016,02,28,13,26,1.90
2016,02,28,13,27,6.00
2016,02,28,13,28,7.20
2016,02,28,13,29,4.60
2016,02,28,13,30,0.00
2016,02,28,13,31,0.00
2016,02,28,13,32,0.00
2016,02,28,13,33,0.00
2016,02,28,13,34,0.50
2016,02,28,13,35,0.00
2016,02,28,13,36,0.00
2016,02,28,13,37,0.00
2016,02,28,13,38,0.00
2016,02,28,13,39,0.00
2016,02,28,13,40,0.00
2016,02,28,13,41,0.00
2016,02,28,13,42,0.00
2016,02,28,13,43,0.10
2016,02,28,13,44,0.00
2016,02,28,13,45,0.00
2016,02,28,13,46,0.00
2016,02,28,13,47,0.00
2016,02,28,13,48,0.00
2016,02,28,13,49,0.00
2016,02,28,13,50,0.00
2016,02,28,13,51,0.00
2016,02,28,13,52,0.10
2016,02,28,13,53,0.50
2016,02,28,13,54,0.00
2016,02,28,13,55,0.00
2016,02,28,13,56,0.10
2016,02,28,13,57,0.10
2016,02,28,13,58,0.00
2016,02,28,13,59,0.00
2016,02,28,14,00,0.00
2016,02,28,14,01,0.00
2016,02,28,14,02,0.00
2016,02,28,14,03,0.00
2016,02,28,14,04,0.00
2016,02,28,14,05,0.00
2016,02,28,14,06,4.30
2016,02,28,14,07,9.10
2016,02,28,14,08,2.60
2016,02,28,14,09,4.40
2016,02,28,14,10,10.10
2016,02,28,14,11,11.10
2016,02,28,14,12,2.10
2016,02,28,14,13,0.30
2016,02,28,14,14,2.30
2016,02,28,14,15,1.70
2016,02,28,14,16,6.30
2016,02,28,14,17,3.50
2016,02,28,14,18,5.10
2016,02,28,14,19,1.70
2016,02,28,14,20,3.50
2016,02,28,14,21,0.00
2016,02,28,14,22,0.00
2016,02,28,14,23,2.00
2016,02,28,14,24,6.70
2016,02,28,14,25,2.00
2016,02,28,14,26,0.00
2016,02,28,14,27,0.00
2016,02,28,14,28,2.70
2016,02,28,14,29,2.60
2016,02,28,14,30,0.00
2016,02,28,14,31,1.10
2016,02,28,14,32,6.70
2016,02,28,14,33,11.50
2016,02,28,14,34,10.10
2016,02,28,14,35,7.80
2016,02,28,14,36,10.20
2016,02,28,14,37,4.10
2016,02,28,14,38,13.40
2016,02,28,14,39,13.90
2016,02,28,14,40,8.30
2016,02,28,14,41,6.00
2016,02,28,14,42,6.70
2016,02,28,14,43,5.10
2016,02,28,14,44,5.50
2016,02,28,14,45,1.90
2016,02,28,14,46,0.00
2016,02,28,14,47,2.30
2016,02,28,14,48,6.80
2016,02,28,14,49,4.90
2016,02,28,14,50,6.30
2016,02,28,14,51,4.50
2016,02,28,14,52,4.20
2016,02,28,14,53,4.10
2016,02,28,14,54,7.70
2016,02,28,14,55,7.30
2016,02,28,14,56,4.50
2016,02,28,14,57,4.70
2016,02,28,14,58,4.90
2016,02,28,14,59,5.00
2016,02,28,15,00,3.40
2016,02,28,15,01,8.50
2016,02,28,15,02,9.50
2016,02,28,15,03,10.10
2016,02,28,15,04,6.40
2016,02,28,15,05,7.50
2016,02,28,15,06,9.80
2016,02,28,15,07,4.60
2016,02,28,15,08,4.50
2016,02,28,15,09,2.00
2016,02,28,15,10,5.50
2016,02,28,15,11,2.80
2016,02,28,15,12,2.50
2016,02,28,15,13,4.70
2016,02,28,15,14,0.70
2016,02,28,15,15,4.70
2016,02,28,15,16,1.30
2016,02,28,15,17,1.00
2016,02,28,15,18,0.00
2016,02,28,15,19,0.10
2016,02,28,15,20,1.10
2016,02,28,15,21,6.80
2016,02,28,15,22,6.40
2016,02,28,15,23,5.70
2016,02,28,15,24,5.60
2016,02,28,15,25,4.00
2016,02,28,15,26,0.00
2016,02,28,15,27,0.00
2016,02,28,15,28,0.00
2016,02,28,15,29,0.00
2016,02,28,15,30,1.20
2016,02,28,15,31,3.60
2016,02,28,15,32,0.00
2016,02,28,15,33,0.00
2016,02,28,15,34,0.30
2016,02,28,15,35,1.50
2016,02,28,15,36,3.90
2016,02,28,15,37,0.50
2016,02,28,15,38,0.00
2016,02,28,15,39,0.00
2016,02,28,15,40,0.00
2016,02,28,15,41,0.00
2016,02,28,15,42,0.00
2016,02,28,15,43,0.00
2016,02,28,15,44,0.00
2016,02,28,15,45,3.40
2016,02,28,15,46,1.20
2016,02,28,15,47,3.10
2016,02,28,15,48,0.70
2016,02,28,15,49,0.60
2016,02,28,15,50,4.40
2016,02,28,15,51,3.00
2016,02,28,15,52,0.00
2016,02,28,15,53,0.00
2016,02,28,15,54,0.00
2016,02,28,15,55,0.20
2016,02,28,15,56,0.30
2016,02,28,15,57,0.00
2016,02,28,15,58,0.00
2016,02,28,15,59,0.00
2016,02,28,16,00,0.00
2016,02,28,16,01,0.50
2016,02,28,16,02,1.40
2016,02,28,16,03,3.00
2016,02,28,16,04,0.80
2016,02,28,16,05,2.50
2016,02,28,16,06,12.90
2016,02,28,16,07,6.20
2016,02,28,16,08,2.40
2016,02,28,16,09,1.80
2016,02,28,16,10,1.90
2016,02,28,16,11,2.00
2016,02,28,16,12,5.60
2016,02,28,16,13,7.50
2016,02,28,16,14,4.20
2016,02,28,16,15,4.30
2016,02,28,16,16,2.70
2016,02,28,16,17,0.00
2016,02,28,16,18,0.00
2016,02,28,16,19,0.70
2016,02,28,16,20,1.40
2016,02,28,16,21,0.00
2016,02,28,16,22,0.10
2016,02,28,16,23,0.00
2016,02,28,16,24,0.00
2016,02,28,16,25,0.00
2016,02,28,16,26,3.00
2016,02,28,16,27,1.30
2016,02,28,16,28,0.00
2016,02,28,16,29,0.20
2016,02,28,16,30,0.00
2016,02,28,16,31,0.00
2016,02,28,16,32,0.00
2016,02,28,16,33,0.00
2016,02,28,16,34,0.60
2016,02,28,16,35,0.40
2016,02,28,16,36,0.00
2016,02,28,16,37,0.00
2016,02,28,16,38,0.00
2016,02,28,16,39,0.00
2016,02,28,16,40,0.00
2016,02,28,16,41,0.00
2016,02,28,16,42,0.00
2016,02,28,16,43,0.00
2016,02,28,16,44,0.00
2016,02,28,16,45,0.00
2016,02,28,16,46,0.00
2016,02,28,16,47,0.00
2016,02,28,16,48,0.00
2016,02,28,16,49,2.20
2016,02,28,16,50,4.60
2016,02,28,16,51,1.90
2016,02,28,16,52,5.50
2016,02,28,16,53,1.20
2016,02,28,16,54,1.00
2016,02,28,16,55,6.40
2016,02,28,16,56,5.90
2016,02,28,16,57,3.90
2016,02,28,16,58,4.00
2016,02,28,16,59,3.70
2016,02,28,17,00,0.00
2016,02,28,17,01,0.00
2016,02,28,17,02,0.00
2016,02,28,17,03,0.00
2016,02,28,17,04,0.00
2016,02,28,17,05,0.00
2016,02,28,17,06,0.00
2016,02,28,17,07,2.30
2016,02,28,17,08,1.90
2016,02,28,17,09,1.80
2016,02,28,17,10,4.10
2016,02,28,17,11,0.10
2016,02,28,17,12,0.00
2016,02,28,17,13,0.00
2016,02,28,17,14,0.00
2016,02,28,17,15,0.00
2016,02,28,17,16,0.00
2016,02,28,17,17,0.00
2016,02,28,17,18,0.00
2016,02,28,17,19,0.00
2016,02,28,17,20,0.00
2016,02,28,17,21,0.00
2016,02,28,17,22,0.00
2016,02,28,17,23,0.00
2016,02,28,17,24,0.00
2016,02,28,17,25,0.00
2016,02,28,17,26,0.00
2016,02,28,17,27,0.00
2016,02,28,17,28,0.00
2016,02,28,17,29,0.00
2016,02,28,17,30,0.00
2016,02,28,17,31,0.00
2016,02,28,17,32,0.00
2016,02,28,17,33,0.00
2016,02,28,17,34,0.00
2016,02,28,17,35,0.00
2016,02,28,17,36,0.00
2016,02,28,17,37,0.10
2016,02,28,17,38,0.00
2016,02,28,17,39,0.00
2016,02,28,17,40,0.00
2016,02,28,17,41,0.00
2016,02,28,17,42,0.00
2016,02,28,17,43,0.00
2016,02,28,17,44,0.00
2016,02,28,17,45,0.00
2016,02,28,17,46,0.00
2016,02,28,17,47,0.00
2016,02,28,17,48,0.00
2016,02,28,17,49,0.00
2016,02,28,17,50,0.00
2016,02,28,17,51,0.00
2016,02,28,17,52,0.00
2016,02,28,17,53,0.00
2016,02,28,17,54,0.00
2016,02,28,17,55,0.00
2016,02,28,17,56,0.00